Weather History for Lamar, CO

Change the Weather History Date:

Friday, March 8, 2013

  Actual Average Record
Temperature  
Mean Temperature 50 °F 40 °F  
Max Temperature 69 °F 56 °F 83 °F (1918)
Min Temperature 30 °F 24 °F 2 °F (1948)
Degree Days  
Heating Degree Days 15 25  
Month to date heating degree days 180 212  
Since 1 July heating degree days 4279 4523  
Cooling Degree Days 0 0  
Month to date cooling degree days 0 0  
Year to date cooling degree days 0 0  
Moisture  
Dew Point 28 °F    
Average Humidity 49    
Maximum Humidity 78    
Minimum Humidity 19    
Precipitation  
Precipitation 0.00 in 0.03 in 0.35 in (1921)
Month to date precipitation 0.01 0.21  
Year to date precipitation 0.13 0.88  
Sea Level Pressure  
Sea Level Pressure 29.71 in    
Wind  
Wind Speed 9 mph (SSW)    
Max Wind Speed 36 mph    
Max Gust Speed 44 mph    
Visibility 10 miles    
Events      
T = Trace of Precipitation, MM = Missing Value Source: NWS Daily Summary

Daily Weather History Graph

Daily Weather History Graph

Search for Another Location

Airport:

Trip Planner

Search our weather history database for the weather conditions in past years. The results will help you decide how hot, cold, wet, or windy it might be!

Date:

Astronomy

Mar. 08, 2013 Rise Set
Actual Time 6:11 AM MST 5:51 PM MST
Civil Twilight 5:45 AM MST 6:17 PM MST
Nautical Twilight 5:15 AM MST 6:48 PM MST
Astronomical Twilight 4:44 AM MST 7:18 PM MST
Moon 3:55 AM MST (3/8) 2:51 PM MST (3/8)
Length of Visible Light 12h 32m
Length of Day
11h 39m
Waning Crescent, 11% of the Moon is Illuminated
Mar 8
Waning Crescent
Mar 11
New
Mar 19
First Quarter
Mar 27
Full
Apr 2
Last Quarter

Hourly Weather History & Observations

Time (MST) Temp. Windchill Dew Point Humidity Pressure Visibility Wind Dir Wind Speed Gust Speed Precip Events Conditions
12:53 AM 39.9 °F 35.1 °F 25.0 °F 55% 29.76 in 10.0 mi West 6.9 mph - N/A   Clear
1:53 AM 35.1 °F 29.3 °F 24.1 °F 64% 29.78 in 10.0 mi West 6.9 mph - N/A   Clear
2:53 AM 34.0 °F 25.0 °F 25.0 °F 70% 29.78 in 10.0 mi SW 12.7 mph - N/A   Clear
3:53 AM 30.9 °F 26.2 °F 23.0 °F 72% 29.80 in 10.0 mi West 4.6 mph - N/A   Clear
4:53 AM 30.9 °F 26.2 °F 24.1 °F 76% 29.82 in 10.0 mi West 4.6 mph - N/A   Clear
5:53 AM 33.1 °F 28.7 °F 26.1 °F 75% 29.83 in 10.0 mi North 4.6 mph - N/A   Clear
6:53 AM 32.0 °F 28.7 °F 26.1 °F 79% 29.85 in 9.0 mi NNE 3.5 mph - N/A   Partly Cloudy
7:53 AM 34.0 °F 31.0 °F 27.0 °F 75% 29.91 in 9.0 mi Variable 3.5 mph - N/A   Clear
8:53 AM 39.9 °F - 28.0 °F 63% 29.88 in 10.0 mi Calm Calm - N/A   Clear
9:53 AM 46.9 °F - 28.9 °F 50% 29.84 in 10.0 mi NE 5.8 mph - N/A   Clear
10:53 AM 48.9 °F - 28.9 °F 46% 29.82 in 10.0 mi NE 5.8 mph - N/A   Clear
11:53 AM 53.1 °F - 28.9 °F 40% 29.79 in 10.0 mi Calm Calm - N/A   Clear
12:53 PM 59.0 °F - 28.0 °F 31% 29.71 in 10.0 mi Variable 4.6 mph - N/A   Clear
1:53 PM 63.0 °F - 28.9 °F 28% 29.67 in 10.0 mi East 4.6 mph - N/A   Clear
2:53 PM 68.0 °F - 28.9 °F 23% 29.61 in 10.0 mi NE 10.4 mph - N/A   Clear
3:53 PM 68.0 °F - 28.9 °F 23% 29.58 in 10.0 mi NE 12.7 mph - N/A   Mostly Cloudy
4:53 PM 68.0 °F - 26.1 °F 21% 29.57 in 10.0 mi SE 8.1 mph 41.4 mph N/A   Squalls
5:53 PM 63.0 °F - 23.0 °F 22% 29.55 in 10.0 mi SSE 8.1 mph - N/A   Partly Cloudy
6:53 PM 68.0 °F - 24.1 °F 19% 29.58 in 10.0 mi SW 29.9 mph 43.7 mph N/A   Overcast
7:53 PM 60.1 °F - 34.0 °F 38% 29.64 in 10.0 mi SW 19.6 mph 32.2 mph N/A   Overcast
8:53 PM 55.9 °F - 35.1 °F 45% 29.60 in 10.0 mi South 10.4 mph - N/A   Clear
9:53 PM 54.0 °F - 34.0 °F 47% 29.57 in 10.0 mi South 10.4 mph - N/A   Clear
10:53 PM 54.0 °F - 35.1 °F 49% 29.53 in 10.0 mi SSW 16.1 mph - N/A   Clear
11:53 PM 54.0 °F - 35.1 °F 49% 29.51 in 10.0 mi SSW 20.7 mph - N/A   Clear